Location: Arpaise
(41.0333°N, 14.7333°E)
Time: 07:39:55
(UTC+00:00)

Lacrosse 5 rocket - Pass Details

Date: 05 July 2020
Orbit: 464 x 632 km, 57.0° (Epoch: 05 August)

Event Time Altitude Azimuth Distance (km) Brightness Sun altitude
Rises 19:35:14 0° 282° (WNW) 2,827 6.1 -9.7°
Reaches altitude 10° 19:38:41 10° 310° (NW) 1,889 5.7 -10.2°
Maximum altitude 19:40:45 13° 339° (NNW) 1,664 4.8 -10.5°
Drops below altitude 10° 19:42:48 10° 9° (N) 1,840 4.5 -10.8°
Sets 19:46:04 0° 37° (NE) 2,690 4.9 -11.2°
